Time,TemperatureF,DewpointF,PressureIn,WindDirection,WindDirectionDegrees,WindSpeedMPH,WindSpeedGustMPH,Humidity,HourlyPrecipIn,Conditions,Clouds,dailyrainin,SolarRadiationWatts/m^2,SoftwareType,DateUTC
2013-04-16 00:02:00,37.0,29.0,-100.00,East,90,0.0,5.0,72,0.08,,,0.62,4.000000,,2013-04-16 07:02:00,
2013-04-16 00:11:00,37.0,29.0,-100.00,East,90,0.0,5.0,72,0.08,,,0.62,4.000000,,2013-04-16 07:11:00,
2013-04-16 00:32:00,36.0,21.0,-100.00,West,279,0.0,5.0,55,0.07,,,0.67,4.000000,,2013-04-16 07:32:00,
2013-04-16 01:42:00,35.0,18.0,-100.00,WNW,302,0.0,5.0,49,0.00,,,0.66,3.000000,,2013-04-16 08:42:00,
2013-04-16 01:52:00,35.0,18.0,-100.00,WNW,302,0.0,5.0,49,0.00,,,0.66,3.000000,,2013-04-16 08:52:00,
2013-04-16 02:33:00,34.0,16.0,-100.00,SW,230,0.0,4.0,48,0.00,,,0.64,4.000000,,2013-04-16 09:33:00,
2013-04-16 03:33:00,36.0,19.0,-100.00,WSW,250,0.0,3.0,50,0.00,,,0.63,3.000000,,2013-04-16 10:33:00,
2013-04-16 04:32:00,36.0,19.0,-100.00,SW,214,0.0,5.0,50,0.00,,,0.62,4.000000,,2013-04-16 11:32:00,
2013-04-16 05:42:00,34.0,17.0,-100.00,SW,226,0.0,3.0,49,0.00,,,0.61,4.000000,,2013-04-16 12:42:00,
2013-04-16 05:52:00,34.0,17.0,-100.00,SW,226,0.0,3.0,49,0.00,,,0.61,4.000000,,2013-04-16 12:52:00,
2013-04-16 06:32:00,34.0,17.0,-100.00,West,264,0.0,6.0,50,0.00,,,0.61,4.000000,,2013-04-16 13:32:00,
2013-04-16 07:32:00,36.0,20.0,-100.00,NE,42,0.0,7.0,51,0.00,,,0.61,14.000000,,2013-04-16 14:32:00,
2013-04-16 08:33:00,38.0,22.0,-100.00,NNW,332,0.0,6.0,51,0.00,,,0.56,79.000000,,2013-04-16 15:33:00,
2013-04-16 09:33:00,38.0,34.0,-100.00,WSW,248,0.0,4.0,87,0.00,,,0.55,155.000000,,2013-04-16 16:33:00,
2013-04-16 09:42:00,38.0,34.0,-100.00,WSW,248,0.0,4.0,87,0.00,,,0.55,155.000000,,2013-04-16 16:42:00,
2013-04-16 09:52:00,38.0,34.0,-100.00,WSW,248,0.0,4.0,87,0.00,,,0.55,155.000000,,2013-04-16 16:52:00,
2013-04-16 10:02:00,38.0,34.0,-100.00,WSW,248,0.0,4.0,87,0.00,,,0.55,155.000000,,2013-04-16 17:02:00,
2013-04-16 10:11:00,38.0,34.0,-100.00,WSW,248,0.0,4.0,87,0.00,,,0.55,155.000000,,2013-04-16 17:11:00,
2013-04-16 10:33:00,42.0,41.0,-100.00,WNW,284,0.0,6.0,95,0.00,,,0.54,248.000000,,2013-04-16 17:33:00,
2013-04-16 10:43:00,42.0,41.0,-100.00,WNW,284,0.0,6.0,95,0.00,,,0.54,248.000000,,2013-04-16 17:43:00,
2013-04-16 10:53:00,42.0,41.0,-100.00,WNW,284,0.0,6.0,95,0.00,,,0.54,248.000000,,2013-04-16 17:53:00,
2013-04-16 11:02:00,42.0,41.0,-100.00,WNW,284,0.0,6.0,95,0.00,,,0.54,248.000000,,2013-04-16 18:02:00,
2013-04-16 11:12:00,42.0,41.0,-100.00,WNW,284,0.0,6.0,95,0.00,,,0.54,248.000000,,2013-04-16 18:12:00,
2013-04-16 11:32:00,44.0,39.0,-100.00,North,3,1.0,7.0,84,0.00,,,0.54,371.000000,,2013-04-16 18:32:00,
2013-04-16 11:43:00,44.0,39.0,-100.00,North,3,1.0,7.0,84,0.00,,,0.54,371.000000,,2013-04-16 18:43:00,
2013-04-16 11:52:00,44.0,39.0,-100.00,North,3,1.0,7.0,84,0.00,,,0.54,371.000000,,2013-04-16 18:52:00,
2013-04-16 12:02:00,44.0,39.0,-100.00,North,3,1.0,7.0,84,0.00,,,0.54,371.000000,,2013-04-16 19:02:00,
2013-04-16 12:12:00,44.0,39.0,-100.00,North,3,1.0,7.0,84,0.00,,,0.54,371.000000,,2013-04-16 19:12:00,
2013-04-16 12:32:00,49.0,43.0,-100.00,West,261,1.0,9.0,79,0.00,,,0.54,512.000000,,2013-04-16 19:32:00,
2013-04-16 12:42:00,49.0,43.0,-100.00,West,261,1.0,9.0,79,0.00,,,0.54,512.000000,,2013-04-16 19:42:00,
2013-04-16 12:52:00,49.0,43.0,-100.00,West,261,1.0,9.0,79,0.00,,,0.54,512.000000,,2013-04-16 19:52:00,
2013-04-16 13:02:00,49.0,43.0,-100.00,West,261,1.0,9.0,79,0.00,,,0.54,512.000000,,2013-04-16 20:02:00,
2013-04-16 13:12:00,49.0,43.0,-100.00,West,261,1.0,9.0,79,0.00,,,0.54,512.000000,,2013-04-16 20:12:00,
2013-04-16 13:32:00,48.0,39.0,-100.00,SE,144,1.0,10.0,71,0.00,,,0.54,621.000000,,2013-04-16 20:32:00,
2013-04-16 13:42:00,48.0,39.0,-100.00,SE,144,1.0,10.0,71,0.00,,,0.54,621.000000,,2013-04-16 20:42:00,
2013-04-16 13:52:00,48.0,39.0,-100.00,SE,144,1.0,10.0,71,0.00,,,0.54,621.000000,,2013-04-16 20:52:00,
2013-04-16 14:02:00,48.0,39.0,-100.00,SE,144,1.0,10.0,71,0.00,,,0.54,621.000000,,2013-04-16 21:02:00,
2013-04-16 14:12:00,48.0,39.0,-100.00,SE,144,1.0,10.0,71,0.00,,,0.54,621.000000,,2013-04-16 21:12:00,
2013-04-16 14:33:00,53.0,36.0,-100.00,ENE,68,1.0,9.0,53,0.00,,,0.53,1043.000000,,2013-04-16 21:33:00,
2013-04-16 14:43:00,53.0,36.0,-100.00,ENE,68,1.0,9.0,53,0.00,,,0.53,1043.000000,,2013-04-16 21:43:00,
2013-04-16 14:53:00,53.0,36.0,-100.00,ENE,68,1.0,9.0,53,0.00,,,0.53,1043.000000,,2013-04-16 21:53:00,
2013-04-16 15:02:00,53.0,36.0,-100.00,ENE,68,1.0,9.0,53,0.00,,,0.53,1043.000000,,2013-04-16 22:02:00,
2013-04-16 15:12:00,53.0,36.0,-100.00,ENE,68,1.0,9.0,53,0.00,,,0.53,1043.000000,,2013-04-16 22:12:00,
2013-04-16 15:43:00,56.0,41.0,-100.00,East,93,2.0,9.0,56,0.00,,,0.46,1076.000000,,2013-04-16 22:43:00,
2013-04-16 15:52:00,56.0,41.0,-100.00,East,93,2.0,9.0,56,0.00,,,0.46,1076.000000,,2013-04-16 22:52:00,
2013-04-16 16:02:00,56.0,41.0,-100.00,East,93,2.0,9.0,56,0.00,,,0.46,1076.000000,,2013-04-16 23:02:00,
2013-04-16 16:12:00,56.0,41.0,-100.00,East,93,2.0,9.0,56,0.00,,,0.46,1076.000000,,2013-04-16 23:12:00,
2013-04-16 16:32:00,52.0,33.0,-100.00,East,85,4.0,16.0,49,0.00,,,-99.99,921.000000,,2013-04-16 23:32:00,
2013-04-16 16:43:00,52.0,33.0,-100.00,East,85,4.0,16.0,49,0.00,,,-99.99,921.000000,,2013-04-16 23:43:00,
2013-04-16 16:52:00,52.0,33.0,-100.00,East,85,4.0,16.0,49,0.00,,,-99.99,921.000000,,2013-04-16 23:52:00,
2013-04-16 17:02:00,52.0,33.0,-100.00,East,85,4.0,16.0,49,0.00,,,-99.99,921.000000,,2013-04-17 00:02:00,
2013-04-16 17:12:00,52.0,33.0,-100.00,East,85,4.0,16.0,49,0.00,,,-99.99,921.000000,,2013-04-17 00:12:00,
2013-04-16 17:32:00,50.0,35.0,-100.00,NNW,328,3.0,13.0,56,0.00,,,-99.99,460.000000,,2013-04-17 00:32:00,
2013-04-16 17:42:00,50.0,35.0,-100.00,NNW,328,3.0,13.0,56,0.00,,,-99.99,460.000000,,2013-04-17 00:42:00,
2013-04-16 17:52:00,50.0,35.0,-100.00,NNW,328,3.0,13.0,56,0.00,,,-99.99,460.000000,,2013-04-17 00:52:00,
2013-04-16 18:02:00,50.0,35.0,-100.00,NNW,328,3.0,13.0,56,0.00,,,-99.99,460.000000,,2013-04-17 01:02:00,
2013-04-16 18:12:00,50.0,35.0,-100.00,NNW,328,3.0,13.0,56,0.00,,,-99.99,460.000000,,2013-04-17 01:12:00,
2013-04-16 18:32:00,46.0,38.0,-100.00,WNW,298,3.0,15.0,73,0.00,,,0.32,350.000000,,2013-04-17 01:32:00,
2013-04-16 18:42:00,46.0,38.0,-100.00,WNW,298,3.0,15.0,73,0.00,,,0.32,350.000000,,2013-04-17 01:42:00,
2013-04-16 18:52:00,46.0,38.0,-100.00,WNW,298,3.0,15.0,73,0.00,,,0.32,350.000000,,2013-04-17 01:52:00,
2013-04-16 19:02:00,46.0,38.0,-100.00,WNW,298,3.0,15.0,73,0.00,,,0.32,350.000000,,2013-04-17 02:02:00,
2013-04-16 19:11:00,46.0,38.0,-100.00,WNW,298,3.0,15.0,73,0.00,,,0.32,350.000000,,2013-04-17 02:11:00,
2013-04-16 19:42:00,42.0,39.0,-100.00,NNW,338,5.0,15.0,88,0.02,,,0.23,96.000000,,2013-04-17 02:42:00,
2013-04-16 19:52:00,42.0,39.0,-100.00,NNW,338,5.0,15.0,88,0.02,,,0.23,96.000000,,2013-04-17 02:52:00,
2013-04-16 20:02:00,42.0,39.0,-100.00,NNW,338,5.0,15.0,88,0.02,,,0.23,96.000000,,2013-04-17 03:02:00,
2013-04-16 20:12:00,42.0,39.0,-100.00,NNW,338,5.0,15.0,88,0.02,,,0.23,96.000000,,2013-04-17 03:12:00,
2013-04-16 20:42:00,36.0,30.0,-100.00,ENE,78,0.0,14.0,80,0.03,,,0.23,21.000000,,2013-04-17 03:42:00,
2013-04-16 20:53:00,36.0,30.0,-100.00,ENE,78,0.0,14.0,80,0.03,,,0.23,21.000000,,2013-04-17 03:53:00,
2013-04-16 21:03:00,36.0,30.0,-100.00,ENE,78,0.0,14.0,80,0.03,,,0.23,21.000000,,2013-04-17 04:03:00,
2013-04-16 21:12:00,36.0,30.0,-100.00,ENE,78,0.0,14.0,80,0.03,,,0.23,21.000000,,2013-04-17 04:12:00,
2013-04-16 21:33:00,38.0,30.0,-100.00,North,7,1.0,8.0,74,0.00,,,0.22,4.000000,,2013-04-17 04:33:00,
2013-04-16 21:42:00,38.0,30.0,-100.00,North,7,1.0,8.0,74,0.00,,,0.22,4.000000,,2013-04-17 04:42:00,
2013-04-16 21:52:00,38.0,30.0,-100.00,North,7,1.0,8.0,74,0.00,,,0.22,4.000000,,2013-04-17 04:52:00,
2013-04-16 22:02:00,38.0,30.0,-100.00,North,7,1.0,8.0,74,0.00,,,0.22,4.000000,,2013-04-17 05:02:00,
2013-04-16 22:12:00,38.0,30.0,-100.00,North,7,1.0,8.0,74,0.00,,,0.22,4.000000,,2013-04-17 05:12:00,
2013-04-16 22:32:00,37.0,29.0,-100.00,NNW,342,0.0,6.0,73,0.01,,,0.21,4.000000,,2013-04-17 05:32:00,
2013-04-16 22:43:00,37.0,29.0,-100.00,NNW,342,0.0,6.0,73,0.01,,,0.21,4.000000,,2013-04-17 05:43:00,
2013-04-16 22:52:00,37.0,29.0,-100.00,NNW,342,0.0,6.0,73,0.01,,,0.21,4.000000,,2013-04-17 05:52:00,
2013-04-16 23:02:00,37.0,29.0,-100.00,NNW,342,0.0,6.0,73,0.01,,,0.21,4.000000,,2013-04-17 06:02:00,
2013-04-16 23:12:00,37.0,29.0,-100.00,NNW,342,0.0,6.0,73,0.01,,,0.21,4.000000,,2013-04-17 06:12:00,
2013-04-16 23:32:00,39.0,37.0,-100.00,NNE,30,0.0,5.0,92,0.00,,,0.13,4.000000,,2013-04-17 06:32:00,
2013-04-16 23:42:00,39.0,37.0,-100.00,NNE,30,0.0,5.0,92,0.00,,,0.13,4.000000,,2013-04-17 06:42:00,
2013-04-16 23:52:00,39.0,37.0,-100.00,NNE,30,0.0,5.0,92,0.00,,,0.13,4.000000,,2013-04-17 06:52:00,